{"data":{"norad_id":55649,"intl_designator":"2023-021X","name":"STARLINK-5469","alt_names":[],"object_type":"PAYLOAD","status":"ACTIVE","operator":null,"country":"US","launch_date":"2023-02-17","launch_site_code":"AFWTR","launch_vehicle":null,"mission":null,"orbit_class":"UNKNOWN","rcs_meters":null,"size_class":null,"mass_kg":null,"dimensions":null,"purposes":["comms"],"wikipedia_slug":null,"has_3d_model":false,"image_url":null,"decayed_at":null,"tle_current":{"epoch":"2026-05-24T23:54:46.850112Z","epoch_age_seconds":85745,"freshness":"FRESH","line1":"1 55649U 23021X   26144.99637558  .00000415  00000+0  42554-4 0  9999","line2":"2 55649  69.9993 351.9701 0002675 268.9553  91.1299 14.98330629180229","mean_motion":14.98330629,"eccentricity":0.0002675,"inclination_deg":69.9993,"raan_deg":351.9701,"arg_perigee_deg":268.9553,"mean_anomaly_deg":91.1299,"bstar":4.2554e-5,"rev_number":18022,"period_min":96.106958779924,"perigee_km":570.19476973648,"apogee_km":573.91312189249,"semimajor_km":6950.1909458145,"source":"CELESTRAK","updated_at":"2026-05-25T13:38:17.868803Z"}}}